Info for "Translations/LanguagePackSchedule"

Not logged in - Log In / Register

[Show "Revision History"] [Show "General Page Infos"] [Show "Page hits and edits"]

Revision History

Showing page edit history entries from 30 to 54 out of 54 entries total. (5 | 10 | 25 | 50 | 100 | 200 items per page)

54 29 4 Older
# Date Size Editor Comment Action
54 2022-06-16 14:56:13 3096 to previous cjwatson update crontab file name view
53 2022-06-16 14:55:37 3082 to previous cjwatson hirsute → kinetic view
52 2021-05-25 13:53:54 2988 to previous ilasc   view
51 2021-05-13 07:44:31 3394 to previous ilasc   view
50 2021-03-12 10:59:18 3332 to previous cjwatson update schedule view
49 2019-03-18 12:25:51 3062 to previous cjwatson zesty → cosmic, belatedly view
48 2019-03-18 12:25:02 3058 to previous cjwatson artful → disco view
47 2018-01-15 17:15:20 3062 to previous cjwatson yakkety → bionic view
46 2017-06-22 11:32:08 3066 to previous wgrant s/vivid/artful/ view
45 2017-03-17 02:18:58 3063 to previous wgrant fix link view
44 2017-03-17 02:17:42 3059 to previous wgrant add zesty view
43 2016-09-13 09:33:04 2918 to previous wgrant add missed RTM 15.04 view
42 2016-09-13 09:31:00 2906 to previous wgrant s/wily/yakkety/ view
41 2016-09-13 09:29:13 2894 to previous wgrant Update with current state (xenial was missed) view
40 2015-07-07 07:59:30 2681 to previous wgrant Update for wily view
39 2014-09-02 13:10:32 2770 to previous wgrant ubuntu-rtm 14.09 exports are on Thursday view
38 2014-05-29 07:29:48 2697 to previous dpm   view
37 2014-05-29 07:28:52 2686 to previous dpm Updated schedule for Utopic view
36 2013-12-13 06:39:09 2809 to previous wgrant And update the build schedule too view
35 2013-12-13 06:34:25 2814 to previous wgrant Update export schedule view
34 2012-09-24 11:31:25 2818 to previous dpm   view
33 2012-08-20 10:18:02 2921 to previous dpm Updated export and build times view
32 2012-03-15 12:08:00 2920 to previous wgrant Update fastdowntime time. view
31 2012-03-15 12:01:11 2918 to previous dpm Updated the export times view
30 2011-12-13 18:03:45 2915 to previous dpm Removed note on Launchpad rollouts. They do not apply now that we do continuous rollouts view
54 29 4 Older